Regional Weather Roundup
Issued by NWS

Home | Current Version | Previous Version | Graphics & Text | Print | Product List | Glossary On
Versions: 1 2 3 4 5 6 7 8 9 10 11 12 13 14 15 16 17 18 19 20 21 22 23 24 25 26 27 28 29 30 31 32 33 34 35 36 37 38 39 40 41 42 43 44 45 46 47 48 49 50
000
ASUS43 KMPX 241701
RWRMN
WEATHER ROUNDUP FOR MINNESOTA
NATIONAL WEATHER SERVICE TWIN CITIES/CHANHASSEN MN
1200 PM CDT SUN MAY 24 2015


NOTE: "FAIR" INDICATES FEW OR NO CLOUDS BELOW 12,000 FEET WITH NO
SIGNIFICANT WEATHER AND/OR OBSTRUCTIONS TO VISIBILITY. N/A MEANS
CURRENT SKY AND/OR WEATHER CONDITIONS ARE NOT AVAILABLE.

MNZ060>063-068>070-241800-
   Twin Cities Metro

CITY           SKY/WX    TMP DP  RH WIND       PRES   REMARKS
TWIN CITIES    LGT RAIN  63  56  78 E9        30.02F
ST PAUL        LGT RAIN  63  56  78 E7        30.03F
CRYSTAL        LGT RAIN  63  55  75 SE8       30.01F
BLAINE         LGT RAIN  63  57  82 E9        30.03S
LAKEVILLE      RAIN      63  55  77 SE15      30.02S
EDEN PRAIRIE   LGT RAIN  62  57  83 E8        30.00F
SOUTH ST PAUL  DRIZZLE   64  55  73 SE6       30.02F
LAKE ELMO      LGT RAIN  63  55  77 SE7       30.04F
$$
MNZ001>005-007-008-013>017-022>024-027-028-241800-
   Northwest Minnesota

CITY           SKY/WX    TMP DP  RH WIND       PRES   REMARKS
BEMIDJI        CLOUDY    68  46  44 E6        30.05F
HALLOCK        SUNNY     73  45  35 S3        30.02F
ROSEAU         SUNNY     73  45  35 CALM      30.04S
WARROAD        SUNNY     75  48  38 SE7       30.04F
THIEF RVR FALL MOSUNNY   72  45  37 SE7G17    30.04F
CROOKSTON      MOSUNNY   72  46  40 SE5       30.03F
FOSSTON        PTSUNNY   72  46  40 E6        30.04F
DETROIT LAKES  CLOUDY    64  48  55 E9        30.04F
MOORHEAD       CLOUDY    66  48  52 E12       30.01F
PARK RAPIDS    CLOUDY    65  46  50 E9        30.04F
MAHNOMEN       CLOUDY    68  45  43 SE10      30.03F
$$
MNZ006-009>011-018-025>026-241800-
   North Central Minnesota

CITY           SKY/WX    TMP DP  RH WIND       PRES   REMARKS
BAUDETTE       SUNNY     75  44  33 NE3       30.04F
FLAG ISLAND    SUNNY     59  54  82 S7        30.02F
INTL FALLS     SUNNY     76  42  29 MISG      30.04F
WASKISH        MOSUNNY   66  54  63 CALM      30.05F
BIG FORK       PTSUNNY   72  43  35 CALM      30.06F
LONGVILLE      CLOUDY    64  46  52 E5        30.05F
GRAND RAPIDS   CLOUDY    66  45  45 SE5       30.08F
CRANE LAKE     MOSUNNY   73  43  33 CALM      30.07F
ORR            MOSUNNY   73  37  27 CALM      30.05F
COOK           PTSUNNY   72  43  35 S5        30.07F
WALKER         CLOUDY    64  47  54 E5        30.06F
$$
MNZ012-019>021-037-241800-
   Northeast Minnesota

CITY           SKY/WX    TMP DP  RH WIND       PRES   REMARKS
DULUTH         CLOUDY    69  43  38 E7        30.08F
ELY            PTSUNNY   73  39  29 S7        30.06F
HIBBING        CLOUDY    72  44  36 S6        30.07F
EVELETH        PTSUNNY   72  43  35 SE5       30.08F
DULUTH HARBOR  CLOUDY    55  48  76 NE3       30.08F
TWO HARBORS    PTSUNNY   73  50  43 SE5       30.06F
GRAND MARAIS     N/A     48  40  73 SW10      30.07S
G MARAIS ARPRT MOSUNNY   73  39  29 SE6       30.09F
$$
MNZ029>031-032-039>041-046>048-054>057-064-241800-
   West Central Minnesota

CITY           SKY/WX    TMP DP  RH WIND       PRES   REMARKS
FERGUS FALLS   CLOUDY    64  50  59 E9        30.00F
WHEATON        CLOUDY    61  52  72 NE7       29.99F
MORRIS         LGT RAIN  64  54  68 E13       29.97F
ALEXANDRIA     CLOUDY    63  50  62 E9        30.01F
ELBOW LAKE     CLOUDY    64  51  62 E8        29.99F
WADENA         CLOUDY    64  50  59 E8        30.02F
GLENWOOD       CLOUDY    64  54  68 E12       30.01S
APPLETON       LGT RAIN  63  55  77 E7        29.96F
BENSON         LGT RAIN  63  55  77 SE5       29.98F
ORTONVILLE     DRIZZLE   63  54  72 NE7       29.97S
MADISON        LGT RAIN  63  55  77 E8        29.96F
WILLMAR        LGT RAIN  63  57  82 E14       30.00S
$$
MNZ033>034-036-042>043-049>051-058-059-241800-
   Central Minnesota

CITY           SKY/WX    TMP DP  RH WIND       PRES   REMARKS
ST CLOUD       LGT RAIN  61  55  81 E6        30.02F
SAUK CENTRE    CLOUDY    62  53  73 E10       30.02S
PAYNESVILLE    LGT RAIN  58  55  89 NE7       30.01S
AITKIN         CLOUDY    68  48  49 E6        30.03F
PINE RIVER     CLOUDY    63  48  59 E7        30.08S
BRAINERD       CLOUDY    66  50  56 E9        30.03F
STAPLES        CLOUDY    64  48  55 E7        30.02F
LONG PRAIRIE   LGT RAIN  63  50  63 E8        30.02S
LITTLE FALLS   LGT RAIN  63  50  63 E3        30.03S
LITCHFIELD     DRIZZLE   63  59  88 SE9       30.01S
BUFFALO        LGT RAIN  62  55  77 E6        30.02F
MAPLE LAKE     CLOUDY    63  57  81 E5        30.03S
$$
MNZ037-044-045-052-053-241800-
   East Central Minnesota

CITY           SKY/WX    TMP DP  RH WIND       PRES   REMARKS
PRINCETON      LGT RAIN  64  55  72 E3        30.03F
MORA           DRIZZLE   63  52  67 E6        30.06S
CAMBRIDGE      DRIZZLE   68  54  60 E3        30.02S
RUSH CITY      CLOUDY    64  56  73 CALM      30.04F
MOOSE LAKE     CLOUDY    64  46  52 CALM      30.04F
HINCKLEY       CLOUDY    64  52  63 E3        30.05F
CLOQUET        DRIZZLE   64  43  45 E5        30.07F
MCGREGOR       CLOUDY    63  48  59 E7        30.06F
$$
MNZ071>073-080-081-089-090-097-098-241800-
   Southwest Minnesota

CITY           SKY/WX    TMP DP  RH WIND       PRES   REMARKS
MONTEVIDEO     CLOUDY    63  57  82 S13       29.97F
GRANITE FALLS  LGT RAIN  60  58  91 E9        29.98F
CANBY          LGT RAIN  60  57  89 NE9       29.96F
MARSHALL       CLOUDY    61  55  82 E14       29.93F
REDWOOD FALLS  LGT RAIN  61  59  93 E9        29.95F FOG
OLIVIA         LGT RAIN  57  54  88 E7        29.97F
PIPESTONE      CLOUDY    61  57  88 E10       29.92F
WINDOM         CLOUDY    61  57  88 E15G21    29.93F FOG
WORTHINGTON    CLOUDY    61  55  82 E16       29.91F
JACKSON        RAIN      59  59 100 E15       29.92F
TRACY          DRIZZLE   60  59  96 E8        29.94F
SLAYTON        LGT RAIN  59  59  99 E14       29.93F
$$
MNZ065>067-074>077-082>085-091>093-241800-
   South Central Minnesota

CITY           SKY/WX    TMP DP  RH WIND       PRES   REMARKS
MANKATO        CLOUDY    61  57  88 E16       29.97F
NEW ULM        DRIZZLE   63  59  88 E10       29.95F
ST JAMES       CLOUDY    63  59  88 E14G23    29.95F
FAIRMONT       CLOUDY    61  54  77 E17G23    29.93F
GLENCOE        LGT RAIN  62  60  91 NE7       29.99F
FARIBAULT      LGT RAIN  61  57  88 E9        30.00F
OWATONNA       DRIZZLE   61  55  82 E16G22    29.99F
WASECA         LGT RAIN  59  54  82 E18G28    29.98F
ALBERT LEA     RAIN      59  59 100 E17G24    29.95F
$$
MNZ078>079-086>088-094>096-241800-
   Southeast Minnesota

CITY           SKY/WX    TMP DP  RH WIND       PRES   REMARKS
ROCHESTER      LGT RAIN  59  57  93 SE16      30.03F
RED WING       LGT RAIN  63  57  82 SE12      30.04S
STANTON        RAIN      62  56  81 SE10      30.01S
DODGE CENTER   LGT RAIN  61  57  88 SE16      30.00F
WINONA         LGT RAIN  59  57  94 SE10      30.05F
AUSTIN         DRIZZLE   61  55  82 E16       29.97F
PRESTON        LGT RAIN  57  55  93 SE10G18   30.03F
$$
ABBREVIATIONS USED IN REMARKS
   TC - TEMPERATURES IN CELSIUS
  WCI - WIND CHILL INDEX
   HX - HEAT INDEX
  VSB - VISIBILITY
$$


USA.gov is the U.S. government's official web portal to all federal, state and local government web resources and services.